Regional Weather Roundup
Issued by NWS

Home | Current Version | Previous Version | Graphics & Text | Print | Product List | Glossary On
Versions: 1 2 3 4 5 6 7 8 9 10 11 12 13 14 15 16 17 18 19 20 21 22 23 24 25 26 27 28 29 30 31 32 33 34 35 36 37 38 39 40 41 42 43 44 45 46 47 48 49 50
000
ASUS43 KMKX 292259
RWRWI

WISCONSIN REGIONAL WEATHER ROUNDUP
NATIONAL WEATHER SERVICE MILWAUKEE/SULLIVAN WI
600 PM CDT SUN MAR 29 2015

NOTE: "FAIR" INDICATES FEW OR NO CLOUDS BELOW 12,000 FEET WITH NO
SIGNIFICANT WEATHER AND/OR OBSTRUCTIONS TO VISIBILITY.

WIZ001-002-006>008-014>016-023>028-300000-
NORTHWEST WISCONSIN

CITY           SKY/WX    TMP DP  RH WIND       PRES   REMARKS
SUPERIOR ARPT  PTSUNNY   46  31  55 NW23G29   29.74R
ASHLAND        PTSUNNY   42  34  73 W14G23    29.69R
HAYWARD        PTSUNNY   42  30  62 NW14G22   29.71R
SIREN          MOSUNNY   49  27  41 NW25G35   29.75R
CUMBERLAND     SUNNY     45  28  53 NW20G35   29.73R
RICE LAKE      MOSUNNY   47  32  56 NW15G28   29.74R
CHETEK         MOSUNNY   45  33  61 NW7G17    29.72R
LADYSMITH      CLOUDY    41  33  74 W15       29.72R
EAU CLAIRE     NOT AVBL
MENOMONIE      SUNNY     52  29  42 W20G32    29.74R
NEW RICHMOND   PTSUNNY   51  27  39 NW25G40   29.77R
OSCEOLA        MOSUNNY   52  27  37 NW18G30   29.80R
$$

WIZ003>005-009-010-017-018-300000-
NORTH CENTRAL WISCONSIN

CITY           SKY/WX    TMP DP  RH WIND       PRES   REMARKS
MANITOWISH WTR LGT RAIN  35  33  92 NW21G29   29.59R WCI  24
ARBOR VITAE    LGT RAIN  37  34  90 NW20      29.59R WCI  26
WOODRUFF       LGT RAIN  37  34  90 NW20      29.59R WCI  26
RHINELANDER    CLOUDY    36  32  85 NW17G24   29.59R WCI  26
EAGLE RIVER    MIX PCPN  34  31  87 NW17G24   29.55R WCI  24
LAND O LAKES   LGT SNOW  35  32  91 NW9G23    29.55R WCI  27
PHILLIPS       CLOUDY    37  32  83 NW12G24   29.65R WCI  29
TOMAHAWK       CLOUDY    36  32  88 NW10G23   29.62R WCI  28
MEDFORD        CLOUDY    37  33  83 NW20G26   29.66R WCI  27
MERRILL        CLOUDY    37  34  87 NW16G29   29.62R WCI  28
$$

WIZ029-030-035-036-043>047-300000-
CENTRAL WISCONSIN

CITY           SKY/WX    TMP DP  RH WIND       PRES   REMARKS
WAUSAU         CLOUDY    39  33  79 NW18G28   29.63R WCI  30
MOSINEE        CLOUDY    37  36  93 S8G28     29.65R WCI  31
MARSHFIELD     CLOUDY    41  34  76 NW23G35   29.69R
STEVENS POINT  CLOUDY    37  33  84 W8G21     29.66R WCI  31
WAUPACA        CLOUDY    43  34  71 NW22G32   29.63R
WAUTOMA        NOT AVBL
WISC RAPIDS    CLOUDY    41  33  73 W17G28    29.71R
CAMP DOUGLAS   CLOUDY    41  41 100 W12       29.72R
$$

WIZ011>013-019>022-031-037>040-048>050-300000-
NORTHEAST WISCONSIN

CITY           SKY/WX    TMP DP  RH WIND       PRES   REMARKS
ANTIGO         DRIZZLE   34  32  92 NW17G25   29.58R WCI  24
SHAWANO        CLOUDY    41  36  81 W13G29    29.58R
OCONTO         CLOUDY    36  36 100 W12       29.56R WCI  28
STURGEON BAY   CLOUDY    36  32  87 SW17G24   29.57R WCI  25
GREEN BAY      CLOUDY    39  36  89 W17G25    29.59R WCI  30
MANITOWOC      NOT AVBL
APPLETON         N/A     39  37  93 W17G25    29.61R WCI  30
CLINTONVILLE   CLOUDY    39  34  81 NW18G30   29.61R WCI  30
OSHKOSH        CLOUDY    42  35  76 W20G31    29.62R
$$

WIZ032>034-041-042-053>061-300000-
SOUTHWEST WISCONSIN

CITY           SKY/WX    TMP DP  RH WIND       PRES   REMARKS
LA CROSSE      CLOUDY    53  36  52 W12       29.75R
SPARTA         CLOUDY    46  35  67 W9        29.75R
VIROQUA        CLOUDY    44  37  77 W9        29.76R
BOSCOBEL       MOSUNNY   49  35  58 W9G18     29.79R
PRAIRIE DU CHI SUNNY     47  34  60 W15       29.80S
PLATTEVILLE    CLOUDY    45  38  75 W17       29.79R
$$

WIZ056-057-062-063-064-067-068-300000-
SOUTH CENTRAL WISCONSIN

CITY           SKY/WX    TMP DP  RH WIND       PRES   REMARKS
REEDSBURG      CLOUDY    42  37  83 NW12G24   29.73R
BARABOO/DELLS  CLOUDY    42  35  75 NW16G25   29.73R
LONE ROCK      CLOUDY    46  35  65 W15G28    29.77R
MINERAL POINT  CLOUDY    43  34  70 W15G22    29.77R
MADISON        CLOUDY    45  35  68 NW13G24   29.73R
MIDDLETON      CLOUDY    46  35  67 W25       29.73R
WATERTOWN      CLOUDY    42  40  93 W17G23    29.69R
MONROE         PTSUNNY   45  36  70 W23G36    29.76R
JANESVILLE     PTSUNNY   48  39  71 SW26G35   29.74R
$$

WIZ051-052-058>065-066-070>072-300000-
SOUTHEAST WISCONSIN

CITY           SKY/WX    TMP DP  RH WIND       PRES   REMARKS
MILWAUKEE      CLOUDY    42  34  73 SW16G29   29.68R
WAUKESHA       CLOUDY    39  36  87 SW23G35   29.69R WCI  29
MILWAUKEE/TIMM NOT AVBL
RACINE         CLOUDY    43  34  70 SW18G31   29.70S
BURLINGTON     MIX PCPN  40  36  86 SW16G28   29.71R WCI  31
KENOSHA        CLOUDY    43  36  76 SW22G33   29.70S
FOND DU LAC    CLOUDY    41  36  82 W15G25    29.65R
SHEBOYGAN      CLOUDY    39  36  89 SW17G24   29.62R FOG     WCI  30
WEST BEND      DRIZZLE   37  34  87 SW14G21   29.64R WCI  29
JUNEAU         CLOUDY    39  37  92 SW16      29.68R WCI  30
$$

LSZ147-162-300000-
LAKE SUPERIOR

STATION/POSITION TIME  TEMP    WIND        PRES    WAVE
                       AIR SEA DIR/SP/G            HT/PER
                 (UTC) (F)     (DEG/KT/KT) (MB)    (FT/S)
DEVILS ISLAND    2200   38     280/ 14/ 16 1003.8R
PORT WING        2200   40     290/ 21/ 24 1005.4R
SAXON HARBOR     2200   40     290/ 13/ 22 1003.7R
$$

LMZ867-665-643>646-300000-
LAKE MICHIGAN

STATION/POSITION TIME  TEMP    WIND        PRES    WAVE
                       AIR SEA DIR/SP/G            HT/PER
                 (UTC) (F)     (DEG/KT/KT) (MB)    (FT/S)
NORTHPORT PIER   2200   33     200/  5/ 13 1000.0
SISTER BAY       2247   34     270/ 23/ 28   N/A
KEWAUNEE LAKESHO 2200   37     220/ 13/ 21 1000.6F
SHEBOYGAN LAKESH 2200   37     210/ 19/ 22 1003.7F
PORT WASHINGTON  2240   39     240/  8/ 14 1004.7S
MILWAUKEE LAKESH 2215   41     230/ 16/ 19   N/A
KENOSHA   LAKESH 2200   43     220/ 21/ 29 1006.1F
$$

TC  - TEMPERATURE IN CELSIUS
VSB - VISIBILITY IN STATUTE MILES
WCI - WIND CHILL INDEX
HX  - HEAT INDEX



USA.gov is the U.S. government's official web portal to all federal, state and local government web resources and services.